Hourly Data Report for October 17, 2016

All times are specified in Local Standard Time (LST). Add 1 hour to adjust for Daylight Saving Time where and when it is observed.

GRISE FIORD CLIMATE
NUNAVUT

76°25'22.040" N
82°54'08.020" W
44.50 m
2402351
71971
NGC

Download Data

Hourly Data (October 2016)
Hourly Data Report for October 17, 2016
Temp Definition
°C
Dew Point Temp Definition
°C
Rel Hum Definition
%
Wind Dir Definition
10's deg

Wind Spd Definition
km/h
Visibility Definition
km
Stn Press Definition
kPa
Hmdx Definition


Wind Chill Definition


Weather Definition


TIME
00:00 -5.5 -11.0 65 10 22   100.37   -13 LegendNANA
01:00 -5.0 -11.2 62 9 26   100.34   -12 LegendNANA
02:00 -5.4 -10.4 68 12 16   100.37   -11 LegendNANA
03:00 -5.7 -9.7 73 9 10   100.36   -10 LegendNANA
04:00 -6.1 -10.6 70 8 38   100.33   -15 LegendNANA
05:00 -6.1 -11.5 65 9 18   100.39   -13 LegendNANA
06:00 -6.4 -11.3 68 10 14   100.42   -12 LegendNANA
07:00 -6.8 -10.7 73 8 17   100.42   -13 LegendNANA
08:00 -6.5 -11.6 67 8 20   100.40   -13 LegendNANA
09:00 -6.7 -10.7 73 10 9   100.44   -11 LegendNANA
10:00 -7.9 -10.0 85 1 4   100.46   -10 LegendNANA
11:00 -8.0 -10.9 80 30 8   100.46   -12 LegendNANA
12:00 -8.1 -13.5 65 4 16   100.44   -15 LegendNANA
13:00 -7.0 -12.4 65 18 3   100.47   -9 LegendNANA
14:00 -7.4 -11.6 72 5 5   100.50   -10 LegendNANA
15:00 -8.7 -12.8 73 4 15   100.53   -15 LegendNANA
16:00 -7.9 -12.3 71 4 3   100.60   -9 LegendNANA
17:00 -8.3 -12.7 70 4 11   100.64   -14 LegendNANA
18:00 -8.1 -12.7 69 5 9   100.69   -13 LegendNANA
19:00 -8.6 -13.0 70 4 8   100.72   -13 LegendNANA
20:00 -8.8 -12.3 76 11 5   100.75   -12 LegendNANA
21:00 -8.1 -12.8 69 5 10   100.78   -13 LegendNANA
22:00 -8.6 -12.3 74 6 4   100.81   -11 LegendNANA
23:00 -9.7 -14.3 69 6 6   100.87   -13 LegendNANA

Notes on Data Quality.

Legend

  • E = Estimated
  • M = Missing
  • NA = Not Available
  • ‡ = Partner data that is not subject to review by the National Climate Archives
Date modified: